Location: Arthez
(43.0833°N, 0.2500°W)
Time: 23:28:41
(UTC+00:00)

Cosmos 2333 Rocket - Pass Details

Date: 23 October 2021
Orbit: 837 x 864 km, 70.8° (Epoch: 27 November)

Event Time Altitude Azimuth Distance (km) Brightness Sun altitude
Rises 20:14:59 0° 220° (SW) 3,385 5.6 -35.0°
Reaches altitude 10° 20:17:29 10° 226° (SW) 2,457 4.9 -35.4°
Enters shadow 20:19:55 25° 239° (WSW) 1,636 3.9 -35.8°
